TimeMST,TemperatureF,Dew PointF,Humidity,Sea Level PressureIn,VisibilityMPH,Wind Direction,Wind SpeedMPH,Gust SpeedMPH,PrecipitationIn,Events,Conditions,WindDirDegrees,DateUTC
12:15 AM,43.2,17.4,36,30.00,10.0,NW,19.6,23.0,N/A,,Clear,310,2014-01-16 07:15:00
12:35 AM,42.4,17.6,37,30.00,10.0,NW,15.0,20.7,N/A,,Clear,310,2014-01-16 07:35:00
12:55 AM,39.7,18.1,42,30.00,10.0,WNW,15.0,-,N/A,,Clear,300,2014-01-16 07:55:00
1:15 AM,37.8,18.3,46,30.01,10.0,WNW,13.8,-,N/A,,Clear,290,2014-01-16 08:15:00
1:35 AM,36.5,18.1,47,30.01,10.0,West,12.7,-,N/A,,Clear,280,2014-01-16 08:35:00
1:55 AM,35.1,17.6,49,30.02,10.0,West,13.8,-,N/A,,Clear,280,2014-01-16 08:55:00
2:15 AM,34.0,17.4,51,30.03,10.0,West,12.7,-,N/A,,Clear,270,2014-01-16 09:15:00
2:35 AM,32.9,17.4,53,30.04,10.0,West,12.7,-,N/A,,Clear,270,2014-01-16 09:35:00
2:55 AM,35.1,18.1,50,30.05,10.0,West,12.7,-,N/A,,Clear,280,2014-01-16 09:55:00
3:15 AM,36.7,18.5,48,30.08,10.0,NW,18.4,24.2,N/A,,Clear,320,2014-01-16 10:15:00
3:35 AM,37.4,19.6,49,30.10,10.0,North,20.7,25.3,N/A,,Clear,350,2014-01-16 10:35:00
3:55 AM,35.8,21.2,55,30.12,10.0,NNW,18.4,25.3,N/A,,Clear,340,2014-01-16 10:55:00
4:15 AM,35.6,22.8,60,30.12,10.0,NNW,17.3,23.0,N/A,,Clear,330,2014-01-16 11:15:00
4:35 AM,35.8,21.7,57,30.12,10.0,NNW,23.0,31.1,N/A,,Clear,330,2014-01-16 11:35:00
4:55 AM,35.6,20.8,55,30.12,10.0,NNW,19.6,33.4,N/A,,Clear,330,2014-01-16 11:55:00
5:15 AM,34.9,20.3,55,30.12,10.0,NW,20.7,26.5,N/A,,Clear,320,2014-01-16 12:15:00
5:35 AM,35.1,19.9,54,30.12,10.0,NNW,20.7,31.1,N/A,,Clear,330,2014-01-16 12:35:00
5:55 AM,35.6,18.9,51,30.11,10.0,NW,26.5,40.3,N/A,,Clear,320,2014-01-16 12:55:00
6:15 AM,36.0,17.4,47,30.11,10.0,NW,23.0,38.0,N/A,,Clear,320,2014-01-16 13:15:00
6:35 AM,36.5,16.5,44,30.12,10.0,NW,23.0,35.7,N/A,,Clear,320,2014-01-16 13:35:00
6:55 AM,36.7,16.5,44,30.12,10.0,NW,25.3,34.5,N/A,,Clear,320,2014-01-16 13:55:00
7:15 AM,36.5,16.7,45,30.13,10.0,NW,21.9,29.9,N/A,,Clear,310,2014-01-16 14:15:00
7:35 AM,36.1,16.3,45,30.14,10.0,NW,25.3,31.1,N/A,,Scattered Clouds,310,2014-01-16 14:35:00
7:55 AM,36.7,17.1,45,30.14,10.0,NW,21.9,33.4,N/A,,Scattered Clouds,310,2014-01-16 14:55:00
8:15 AM,37.8,16.0,41,30.14,10.0,NW,21.9,32.2,N/A,,Clear,310,2014-01-16 15:15:00
8:35 AM,39.0,15.4,38,30.15,10.0,NW,25.3,35.7,N/A,,Clear,310,2014-01-16 15:35:00
8:55 AM,40.1,15.6,37,30.15,10.0,NW,28.8,39.1,N/A,,Clear,320,2014-01-16 15:55:00
9:15 AM,41.0,14.5,34,30.16,10.0,NW,34.5,47.2,N/A,,Clear,310,2014-01-16 16:15:00
9:35 AM,41.9,13.8,32,30.17,10.0,NW,27.6,39.1,N/A,,Mostly Cloudy,320,2014-01-16 16:35:00
9:55 AM,42.4,12.2,29,30.17,10.0,NW,35.7,44.9,N/A,,Mostly Cloudy,320,2014-01-16 16:55:00
10:15 AM,43.7,12.6,28,30.17,10.0,NW,34.5,41.4,N/A,,Mostly Cloudy,320,2014-01-16 17:15:00
10:35 AM,44.2,12.0,27,30.16,10.0,NW,32.2,42.6,N/A,,Scattered Clouds,320,2014-01-16 17:35:00
10:55 AM,44.8,10.0,24,30.17,10.0,NW,35.7,47.2,N/A,,Clear,320,2014-01-16 17:55:00
11:15 AM,45.5,10.6,24,30.16,10.0,NW,38.0,47.2,N/A,,Clear,320,2014-01-16 18:15:00
11:35 AM,44.8,8.4,23,30.15,10.0,NNW,35.7,51.8,N/A,,Clear,330,2014-01-16 18:35:00
11:55 AM,44.8,9.5,24,30.14,10.0,NW,31.1,47.2,N/A,,Clear,320,2014-01-16 18:55:00
12:15 PM,44.4,8.4,23,30.14,10.0,NNW,29.9,47.2,N/A,,Clear,330,2014-01-16 19:15:00
12:35 PM,44.2,7.3,22,30.14,10.0,NNW,32.2,46.0,N/A,,Scattered Clouds,330,2014-01-16 19:35:00
12:55 PM,44.2,7.3,22,30.13,10.0,NNW,33.4,44.9,N/A,,Clear,330,2014-01-16 19:55:00
1:15 PM,43.9,6.3,21,30.13,7.0,NW,43.7,56.4,N/A,,Clear,320,2014-01-16 20:15:00
2:15 PM,43.9,6.6,22,30.12,10.0,NW,29.9,50.6,N/A,,Clear,320,2014-01-16 21:15:00
2:35 PM,43.9,6.8,22,30.12,10.0,NW,28.8,40.3,N/A,,Scattered Clouds,320,2014-01-16 21:35:00
2:55 PM,43.0,6.8,23,30.13,10.0,NW,33.4,48.3,N/A,,Scattered Clouds,320,2014-01-16 21:55:00
3:15 PM,42.4,7.5,24,30.13,10.0,NNW,27.6,40.3,N/A,,Clear,330,2014-01-16 22:15:00
3:35 PM,41.9,8.1,25,30.14,10.0,NNW,20.7,31.1,N/A,,Clear,340,2014-01-16 22:35:00
3:55 PM,41.0,8.4,26,30.15,10.0,NNW,23.0,31.1,N/A,,Clear,340,2014-01-16 22:55:00
4:15 PM,40.1,8.6,27,30.15,10.0,NNW,26.5,34.5,N/A,,Scattered Clouds,340,2014-01-16 23:15:00
4:35 PM,39.4,8.6,28,30.16,10.0,NNW,24.2,34.5,N/A,,Overcast,340,2014-01-16 23:35:00
4:55 PM,38.8,7.2,27,30.16,10.0,NNW,27.6,34.5,N/A,,Mostly Cloudy,340,2014-01-16 23:55:00
5:15 PM,39.2,4.8,24,30.17,10.0,NNW,28.8,41.4,N/A,,Overcast,340,2014-01-17 00:15:00
5:35 PM,38.5,5.4,25,30.18,10.0,NNW,25.3,39.1,N/A,,Overcast,340,2014-01-17 00:35:00
5:55 PM,37.4,5.9,27,30.19,10.0,NNW,25.3,38.0,N/A,,Scattered Clouds,340,2014-01-17 00:55:00
6:15 PM,36.9,6.3,28,30.20,10.0,NNW,23.0,38.0,N/A,,Mostly Cloudy,340,2014-01-17 01:15:00
6:35 PM,35.6,6.6,30,30.21,10.0,NNW,24.2,33.4,N/A,,Mostly Cloudy,340,2014-01-17 01:35:00
6:55 PM,34.3,7.2,32,30.22,10.0,NNW,20.7,28.8,N/A,,Scattered Clouds,340,2014-01-17 01:55:00
7:15 PM,33.1,8.1,35,30.22,10.0,NNW,19.6,27.6,N/A,,Clear,330,2014-01-17 02:15:00
7:35 PM,32.9,9.5,38,30.23,10.0,North,-9999.0,-,N/A,,Clear,0,2014-01-17 02:35:00
7:55 PM,32.0,10.4,41,30.24,10.0,NNW,15.0,23.0,N/A,,Clear,330,2014-01-17 02:55:00
8:15 PM,31.5,11.3,43,30.24,10.0,NNW,16.1,23.0,N/A,,Clear,330,2014-01-17 03:15:00
8:35 PM,30.7,11.7,45,30.24,10.0,NW,16.1,21.9,N/A,,Clear,320,2014-01-17 03:35:00
8:55 PM,30.2,11.8,47,30.25,10.0,NNW,17.3,21.9,N/A,,Clear,330,2014-01-17 03:55:00
9:15 PM,30.2,11.8,47,30.25,10.0,NW,17.3,21.9,N/A,,Clear,320,2014-01-17 04:15:00
9:35 PM,29.1,12.2,49,30.25,10.0,NW,13.8,-,N/A,,Clear,320,2014-01-17 04:35:00
9:55 PM,27.9,12.4,52,30.25,10.0,NW,12.7,18.4,N/A,,Clear,320,2014-01-17 04:55:00
10:15 PM,26.6,12.6,55,30.25,10.0,NW,10.4,-,N/A,,Clear,320,2014-01-17 05:15:00
10:35 PM,26.1,13.1,58,30.25,10.0,NW,10.4,-,N/A,,Clear,320,2014-01-17 05:35:00
10:55 PM,26.6,13.5,58,30.24,10.0,NNW,11.5,-,N/A,,Clear,330,2014-01-17 05:55:00
11:15 PM,26.6,13.8,59,30.24,10.0,NNW,10.4,-,N/A,,Clear,330,2014-01-17 06:15:00
11:35 PM,24.1,13.3,63,30.24,10.0,West,8.1,-,N/A,,Clear,280,2014-01-17 06:35:00
11:55 PM,21.2,12.7,70,30.23,10.0,West,6.9,-,N/A,,Clear,270,2014-01-17 06:55:00